Weather History for Aspen, CO

Change the Weather History Date:

Wednesday, February 6, 2013

  Actual Average Record
Temperature  
Mean Temperature 28 °F 21 °F  
Max Temperature 42 °F 34 °F 48 °F (1987)
Min Temperature 13 °F 8 °F -24 °F (1989)
Degree Days  
Heating Degree Days 37 44  
Month to date heating degree days 248 269  
Since 1 July heating degree days 4993 5391  
Cooling Degree Days 0 0  
Month to date cooling degree days 0 0  
Year to date cooling degree days 0 0  
Moisture  
Dew Point 23 °F    
Average Humidity 70    
Maximum Humidity 92    
Minimum Humidity 47    
Precipitation  
Precipitation 0.06 in 0.04 in 0.13 in (1983)
Month to date precipitation 0.06 0.21  
Year to date precipitation 0.57 1.24  
Sea Level Pressure  
Sea Level Pressure 29.98 in    
Wind  
Wind Speed 5 mph (NNW)    
Max Wind Speed 21 mph    
Max Gust Speed 26 mph    
Visibility 7 miles    
Events Snow    
T = Trace of Precipitation, MM = Missing Value Source: NWS Daily Summary

Daily Weather History Graph

Daily Weather History Graph

Search for Another Location

Airport:

Trip Planner

Search our weather history database for the weather conditions in past years. The results will help you decide how hot, cold, wet, or windy it might be!

Date:

Astronomy

Feb. 06, 2013 Rise Set
Actual Time 7:09 AM MST 5:34 PM MST
Civil Twilight 6:41 AM MST 6:02 PM MST
Nautical Twilight 6:09 AM MST 6:34 PM MST
Astronomical Twilight 5:38 AM MST 7:05 PM MST
Moon 3:54 AM MST (2/6) 1:56 PM MST (2/6)
Length of Visible Light 11h 21m
Length of Day
10h 25m
Waning Crescent, 16% of the Moon is Illuminated
Feb 6
Waning Crescent
Feb 10
New
Feb 17
First Quarter
Feb 25
Full
Mar 4
Last Quarter

Hourly Weather History & Observations

Time (MST) Temp. Windchill Dew Point Humidity Pressure Visibility Wind Dir Wind Speed Gust Speed Precip Events Conditions
12:53 AM 18.0 °F 8.7 °F 12.0 °F 78% 29.93 in 10.0 mi South 6.9 mph - N/A   Clear
1:53 AM 17.1 °F 10.0 °F 10.9 °F 77% 29.91 in 10.0 mi South 4.6 mph - N/A   Clear
2:53 AM 16.0 °F - 10.9 °F 81% 29.90 in 10.0 mi Calm Calm - N/A   Clear
3:53 AM 12.9 °F - 9.0 °F 84% 29.93 in 10.0 mi Calm Calm - N/A   Clear
6:53 AM 15.1 °F 5.2 °F 9.0 °F 77% 29.96 in 10.0 mi South 6.9 mph - N/A   Clear
7:53 AM 17.1 °F 10.0 °F 10.9 °F 77% 30.01 in 10.0 mi South 4.6 mph - N/A   Clear
8:53 AM 24.1 °F - 15.1 °F 69% 29.97 in 10.0 mi Calm Calm - N/A   Clear
9:53 AM 30.0 °F 26.5 °F 16.0 °F 56% 29.92 in 10.0 mi South 3.5 mph - N/A   Partly Cloudy
10:53 AM 36.0 °F 33.3 °F 18.0 °F 48% 29.90 in 10.0 mi SSW 3.5 mph - N/A   Mostly Cloudy
11:53 AM 37.9 °F 32.1 °F 19.0 °F 47% 29.87 in 10.0 mi North 8.1 mph - N/A   Mostly Cloudy
12:53 PM 37.9 °F 30.0 °F 19.0 °F 47% 29.88 in 10.0 mi NNW 12.7 mph 20.7 mph N/A   Overcast
1:53 PM 36.0 °F 32.1 °F 23.0 °F 59% 29.91 in 10.0 mi North 4.6 mph - N/A   Overcast
2:44 PM 33.8 °F - 26.6 °F 75% 29.94 in 2.5 mi Calm Calm - 0.00 in Snow Light Snow
2:53 PM 33.1 °F - 27.0 °F 78% 29.94 in 2.0 mi Calm Calm - 0.00 in Snow Light Snow
2:55 PM 33.8 °F - 26.6 °F 75% 29.94 in 2.0 mi Calm Calm - 0.00 in Snow Light Snow
3:03 PM 32.0 °F - 28.4 °F 87% 29.95 in 0.8 mi Calm Calm - 0.00 in Snow Light Snow
3:06 PM 32.0 °F - 28.4 °F 87% 29.95 in 2.0 mi Calm Calm - 0.00 in Snow Light Snow
3:31 PM 32.0 °F - 28.4 °F 87% 29.95 in 3.0 mi Calm Calm - 0.00 in Snow Light Snow
3:53 PM 32.0 °F - 28.0 °F 85% 29.97 in 6.0 mi Calm Calm - 0.00 in   Overcast
4:12 PM 33.8 °F 30.8 °F 28.4 °F 81% 29.95 in 2.0 mi North 3.5 mph - 0.00 in Snow Light Snow
4:41 PM 32.0 °F 27.5 °F 28.4 °F 87% 29.96 in 3.0 mi North 4.6 mph - 0.00 in Snow Light Snow
4:53 PM 32.0 °F 28.7 °F 28.9 °F 88% 29.95 in 2.0 mi North 3.5 mph - 0.00 in Snow Light Snow
5:53 PM 30.0 °F - 28.9 °F 96% 29.99 in 2.0 mi Calm Calm - 0.01 in Snow Light Snow
6:03 PM 30.2 °F - 28.4 °F 93% 29.98 in 3.0 mi Calm Calm - 0.00 in Snow Light Snow
6:35 PM 30.2 °F 26.7 °F 28.4 °F 93% 29.99 in 2.0 mi North 3.5 mph - 0.01 in Snow Light Snow
6:53 PM 30.0 °F - 28.9 °F 96% 30.01 in 2.0 mi Calm Calm - 0.02 in Snow Light Snow
7:40 PM 30.2 °F 24.3 °F 28.4 °F 93% 30.01 in 4.0 mi North 5.8 mph - 0.02 in Snow Light Snow
7:53 PM 28.9 °F 19.8 °F 27.0 °F 92% 30.03 in 9.0 mi NNW 10.4 mph - 0.02 in   Mostly Cloudy
8:53 PM 30.0 °F 21.7 °F 26.1 °F 85% 30.02 in 10.0 mi NW 9.2 mph - 0.00 in   Overcast
9:38 PM 28.4 °F 19.7 °F 26.6 °F 93% 30.05 in 10.0 mi North 9.2 mph - N/A   Mostly Cloudy
9:53 PM 28.9 °F 19.8 °F 26.1 °F 89% 30.01 in 10.0 mi NNW 10.4 mph - N/A   Mostly Cloudy
10:00 PM 28.4 °F 18.5 °F 26.6 °F 93% 30.06 in 10.0 mi NNW 11.5 mph - 0.00 in Snow Light Snow
10:20 PM 28.4 °F 22.2 °F 26.6 °F 93% 30.06 in 1.8 mi North 5.8 mph - 0.01 in Snow Light Snow
10:37 PM 28.4 °F - 26.6 °F 93% 30.07 in 3.0 mi Calm Calm - 0.01 in Snow Light Snow
10:50 PM 28.4 °F 24.6 °F 26.6 °F 93% 30.07 in 9.0 mi NNE 3.5 mph - 0.01 in   Overcast
10:53 PM 28.9 °F 25.2 °F 26.1 °F 89% 29.99 in 10.0 mi North 3.5 mph - 0.01 in   Overcast
11:10 PM 28.4 °F 22.2 °F 24.8 °F 86% 30.08 in 10.0 mi NNW 5.8 mph - N/A   Overcast
11:17 PM 28.4 °F 21.2 °F 24.8 °F 86% 30.08 in 10.0 mi NNW 6.9 mph - N/A   Overcast
11:30 PM 28.4 °F 23.3 °F 24.8 °F 86% 30.08 in 10.0 mi North 4.6 mph - N/A   Overcast
11:53 PM 26.1 °F 21.9 °F 24.1 °F 92% 30.02 in 10.0 mi NNW 3.5 mph - N/A   Overcast